Regional Weather Roundup
Issued by NWS Glasgow, MT

Home | Current Version | Previous Version | Text Only | Print | Product List | Glossary On
Versions: 1 2 3 4 5 6 7 8 9 10 11 12 13 14 15 16 17 18 19 20 21 22 23 24 25 26 27 28 29 30 31 32 33 34 35 36 37 38 39 40 41 42 43 44 45 46 47 48 49 50
000
ASUS45 KGGW 020315
RWRGGW
HOURLY WEATHER ROUNDUP FOR NORTHEAST MONTANA
NATIONAL WEATHER SERVICE GLASGOW MONTANA
800 PM MST SUN MAR 01 2015

NOTE: "FAIR" INDICATES FEW OR NO CLOUDS BELOW 12,000 FEET WITH NO
SIGNIFICANT WEATHER AND/OR OBSTRUCTIONS TO VISISBILITY.

NORTHEAST MONTANA


CITY           SKY/WX    TMP DP  RH WIND       PRES   REMARKS
GLASGOW        CLEAR     17   9  70 SE10      30.17F
PLENTYWOOD       N/A     16   5  62 SE3         N/A
WOLF POINT     CLEAR     18   9  68 S3        30.23F
JORDAN           N/A     17  10  74 S7        30.15F
WINNETT          N/A     24  14  65 SE8G16      N/A
SIDNEY         CLEAR     16  10  79 S6        30.29F
GLENDIVE       CLEAR     18   9  68 S6        30.25F
MALTA            N/A     23  11  60 SE8         N/A
SCOBEY           N/A     13   1  59 CALM      30.15F

FORT PECK REPORTS


CITY           SKY/WX    TMP DP  RH WIND       PRES   REMARKS
FORT PECK        N/A     21  12  68 E10         N/A
THE PINES        N/A     20  12  71 SE5         N/A

SOUTHEAST MONTANA


CITY           SKY/WX    TMP DP  RH WIND       PRES   REMARKS
BILLINGS       PTCLDY    25   5  42 S9        30.09F
MILES CITY     CLEAR     18   8  65 SE7       30.21F
BAKER          CLEAR      5   2  87 S5        30.25S
LIVINGSTON     CLEAR     21   8  57 CALM      30.01F

CENTRAL MONTANA


CITY           SKY/WX    TMP DP  RH WIND       PRES   REMARKS
HAVRE          CLEAR     21  11  65 E6        30.01F
LEWISTOWN      CLEAR     20   7  57 SE8       29.99F
GREAT FALLS    MOCLDY    30  10  43 S18       29.93F
CUT BANK       CLOUDY    26  17  68 S6        29.89F
HELENA           N/A     28  13  53 CALM      29.98
BUTTE          PTCLDY    25   6  44 S5        29.95F
BOZEMAN        PTCLDY    18  10  71 SE6       30.01F

WESTERN MONTANA


CITY           SKY/WX    TMP DP  RH WIND       PRES   REMARKS
MISSOULA       MOCLDY    30  13  49 CALM      29.99F
KALISPELL      NOT AVBL

NORTH DAKOTA


CITY           SKY/WX    TMP DP  RH WIND       PRES   REMARKS
WILLISTON      PTCLDY     5  -1  76 CALM      30.27F
DICKINSON      CLEAR      8   5  87 S7        30.26S
MINOT          CLEAR     14   6  70 SW9       30.29S
BISMARCK       CLEAR      6   2  83 VRB5      30.36S

SOUTHERN SASKATCHEWAN


CITY           SKY/WX    TMP DP  RH WIND       PRES   REMARKS
REGINA         CLEAR      7   3  85 SE8       30.20F
ESTEVAN        CLEAR      5   3  92 SW5       30.25F
SWIFT CURRENT  CLEAR     10   5  79 S13       30.03F WCI  -5



USA.gov is the U.S. government's official web portal to all federal, state and local government web resources and services.